{"data":{"norad_id":41859,"epoch":"2026-05-24T06:46:01.933248Z","epoch_age_seconds":147740,"freshness":"FRESH","line1":"1 41859U 16069A   26144.28196682  .00000016  00000+0  00000+0 0  9993","line2":"2 41859  55.4848 101.7471 0005716 323.6698  36.2517  1.70473755 58994","mean_motion":1.70473755,"eccentricity":0.0005716,"inclination_deg":55.4848,"raan_deg":101.7471,"arg_perigee_deg":323.6698,"mean_anomaly_deg":36.2517,"bstar":0,"rev_number":5899,"period_min":844.70480514728,"perigee_km":23205.291858891,"apogee_km":23239.130977202,"semimajor_km":29600.348418047,"source":"CELESTRAK","updated_at":"2026-05-25T13:38:24.057136Z"}}